Time,TemperatureF,DewpointF,PressureIn,WindDirection,WindDirectionDegrees,WindSpeedMPH,WindSpeedGustMPH,Humidity,HourlyPrecipIn,Conditions,Clouds,dailyrainin,SoftwareType,DateUTC
2013-08-17 00:01:00,78.9,75.7,29.96,SSW,199,7.0,7.0,90,0.00,,---,0.00,VWS V14.01,2013-08-17 05:01:00,
2013-08-17 00:06:00,78.9,75.7,29.96,SW,215,6.0,9.0,90,0.00,,---,0.00,VWS V14.01,2013-08-17 05:06:00,
2013-08-17 00:11:00,78.9,75.7,29.96,South,186,5.0,9.0,90,0.00,,---,0.00,VWS V14.01,2013-08-17 05:11:00,
2013-08-17 00:16:00,79.2,76.0,29.96,South,171,4.0,9.0,90,0.00,,---,0.00,VWS V14.01,2013-08-17 05:16:00,
2013-08-17 00:21:00,79.5,76.0,29.96,South,169,2.0,9.0,89,0.00,,---,0.00,VWS V14.01,2013-08-17 05:21:00,
2013-08-17 00:26:00,79.6,76.1,29.96,SE,131,1.0,9.0,89,0.00,,---,0.00,VWS V14.01,2013-08-17 05:26:00,
2013-08-17 00:31:00,79.7,76.2,29.96,SSE,155,2.0,9.0,89,0.00,,---,0.00,VWS V14.01,2013-08-17 05:31:00,
2013-08-17 00:36:00,79.8,75.9,29.96,SSE,163,4.0,9.0,88,0.00,,---,0.00,VWS V14.01,2013-08-17 05:36:00,
2013-08-17 00:41:00,79.9,76.0,29.96,SSE,163,0.0,9.0,88,0.00,,---,0.00,VWS V14.01,2013-08-17 05:41:00,
2013-08-17 00:46:00,79.9,75.7,29.96,SSE,157,3.0,9.0,87,0.00,,---,0.00,VWS V14.01,2013-08-17 05:46:00,
2013-08-17 00:51:00,79.9,75.7,29.97,SE,127,0.0,9.0,87,0.00,,---,0.00,VWS V14.01,2013-08-17 05:51:00,
2013-08-17 00:56:00,79.9,75.3,29.97,SE,127,0.0,9.0,86,0.00,,---,0.00,VWS V14.01,2013-08-17 05:56:00,
2013-08-17 01:01:00,79.6,75.4,29.97,SE,127,0.0,0.0,87,0.00,,---,0.00,VWS V14.01,2013-08-17 06:01:00,
2013-08-17 01:06:00,79.4,75.2,29.97,SE,127,0.0,0.0,87,0.00,,---,0.00,VWS V14.01,2013-08-17 06:06:00,
2013-08-17 01:11:00,79.2,75.3,29.97,SE,127,0.0,0.0,88,0.00,,---,0.00,VWS V14.01,2013-08-17 06:11:00,
2013-08-17 01:16:00,78.9,75.1,29.97,NW,326,0.0,0.0,88,0.00,,---,0.00,VWS V14.01,2013-08-17 06:16:00,
2013-08-17 01:21:00,78.4,74.9,29.97,NW,316,0.0,1.0,89,0.00,,---,0.00,VWS V14.01,2013-08-17 06:21:00,
2013-08-17 01:26:00,77.9,74.7,29.97,NNW,340,0.0,1.0,90,0.00,,---,0.00,VWS V14.01,2013-08-17 06:26:00,
2013-08-17 01:40:00,77.6,74.4,29.97,NNW,329,1.0,1.0,90,0.00,,---,0.00,VWS V14.01,2013-08-17 06:40:00,
2013-08-17 01:45:00,76.7,74.2,29.97,NW,309,0.0,1.0,92,0.00,,---,0.00,VWS V14.01,2013-08-17 06:45:00,
2013-08-17 01:50:00,76.5,74.0,29.97,NW,316,0.0,2.0,92,0.00,,---,0.00,VWS V14.01,2013-08-17 06:50:00,
2013-08-17 01:55:00,76.4,73.9,29.97,NW,312,0.0,2.0,92,0.00,,---,0.00,VWS V14.01,2013-08-17 06:55:00,
2013-08-17 02:00:00,76.2,73.7,29.97,NW,312,0.0,2.0,92,0.00,,---,0.00,VWS V14.01,2013-08-17 07:00:00,
2013-08-17 02:05:00,76.1,73.6,29.97,NW,326,1.0,2.0,92,0.00,,---,0.00,VWS V14.01,2013-08-17 07:05:00,
2013-08-17 02:10:00,75.9,73.7,29.97,NNW,331,1.0,2.0,93,0.00,,---,0.00,VWS V14.01,2013-08-17 07:10:00,
2013-08-17 02:15:00,75.8,73.6,29.97,NW,305,0.0,2.0,93,0.00,,---,0.00,VWS V14.01,2013-08-17 07:15:00,
2013-08-17 02:20:00,75.9,73.7,29.97,NW,315,0.0,2.0,93,0.00,,---,0.00,VWS V14.01,2013-08-17 07:20:00,
2013-08-17 02:25:00,75.9,73.7,29.97,North,4,2.0,3.0,93,0.00,,---,0.00,VWS V14.01,2013-08-17 07:25:00,
2013-08-17 02:30:00,76.0,74.2,29.97,NW,321,1.0,3.0,94,0.00,,---,0.00,VWS V14.01,2013-08-17 07:30:00,
2013-08-17 02:35:00,76.2,74.3,29.97,NW,323,0.0,3.0,94,0.00,,---,0.00,VWS V14.01,2013-08-17 07:35:00,
2013-08-17 02:40:00,76.4,74.6,29.97,NNW,332,0.0,3.0,94,0.00,,---,0.00,VWS V14.01,2013-08-17 07:40:00,
2013-08-17 02:45:00,76.6,74.8,29.97,NW,326,1.0,3.0,94,0.00,,---,0.00,VWS V14.01,2013-08-17 07:45:00,
2013-08-17 02:50:00,76.5,74.7,29.97,NNW,347,1.0,3.0,94,0.00,,---,0.00,VWS V14.01,2013-08-17 07:50:00,
2013-08-17 02:55:00,76.5,74.7,29.97,NW,326,0.0,3.0,94,0.00,,---,0.00,VWS V14.01,2013-08-17 07:55:00,
2013-08-17 03:00:00,76.5,74.7,29.97,North,349,1.0,3.0,94,0.00,,---,0.00,VWS V14.01,2013-08-17 08:00:00,
2013-08-17 03:05:00,76.4,74.6,29.97,NNW,330,0.0,4.0,94,0.00,,---,0.00,VWS V14.01,2013-08-17 08:05:00,
2013-08-17 03:10:00,76.4,74.6,29.97,NW,326,1.0,4.0,94,0.00,,---,0.00,VWS V14.01,2013-08-17 08:10:00,
2013-08-17 03:15:00,76.4,74.6,29.97,North,357,0.0,4.0,94,0.00,,---,0.00,VWS V14.01,2013-08-17 08:15:00,
2013-08-17 03:20:00,76.4,74.6,29.96,NNW,330,2.0,4.0,94,0.00,,---,0.00,VWS V14.01,2013-08-17 08:20:00,
2013-08-17 03:25:00,76.4,74.6,29.96,NNW,341,0.0,4.0,94,0.00,,---,0.00,VWS V14.01,2013-08-17 08:25:00,
2013-08-17 03:30:00,76.4,74.6,29.96,NNE,18,3.0,4.0,94,0.00,,---,0.00,VWS V14.01,2013-08-17 08:30:00,
2013-08-17 03:35:00,76.4,74.6,29.96,North,1,0.0,4.0,94,0.00,,---,0.00,VWS V14.01,2013-08-17 08:35:00,
2013-08-17 03:40:00,76.3,74.4,29.96,NNW,332,1.0,4.0,94,0.00,,---,0.00,VWS V14.01,2013-08-17 08:40:00,
2013-08-17 03:45:00,76.3,74.4,29.96,NW,305,1.0,4.0,94,0.00,,---,0.00,VWS V14.01,2013-08-17 08:45:00,
2013-08-17 03:50:00,76.2,74.3,29.96,NNW,342,1.0,4.0,94,0.00,,---,0.00,VWS V14.01,2013-08-17 08:50:00,
2013-08-17 03:55:00,76.2,74.3,29.96,NW,315,2.0,4.0,94,0.00,,---,0.00,VWS V14.01,2013-08-17 08:55:00,
2013-08-17 04:00:00,76.1,74.2,29.96,NNW,331,2.0,5.0,94,0.00,,---,0.00,VWS V14.01,2013-08-17 09:00:00,
2013-08-17 04:05:00,76.0,74.2,29.96,NNE,18,2.0,5.0,94,0.00,,---,0.00,VWS V14.01,2013-08-17 09:05:00,
2013-08-17 04:10:00,75.9,74.1,29.96,North,6,1.0,5.0,94,0.00,,---,0.00,VWS V14.01,2013-08-17 09:10:00,
2013-08-17 04:15:00,75.8,73.9,29.96,NE,41,1.0,5.0,94,0.00,,---,0.00,VWS V14.01,2013-08-17 09:15:00,
2013-08-17 04:20:00,75.7,73.8,29.96,North,353,0.0,5.0,94,0.00,,---,0.00,VWS V14.01,2013-08-17 09:20:00,
2013-08-17 04:25:00,75.6,73.8,29.96,NNW,345,1.0,5.0,94,0.00,,---,0.00,VWS V14.01,2013-08-17 09:25:00,
2013-08-17 04:30:00,75.5,73.7,29.96,NNW,342,0.0,5.0,94,0.00,,---,0.00,VWS V14.01,2013-08-17 09:30:00,
2013-08-17 04:35:00,75.5,73.7,29.96,NNW,343,0.0,5.0,94,0.00,,---,0.00,VWS V14.01,2013-08-17 09:35:00,
2013-08-17 04:40:00,75.5,73.7,29.96,NNW,339,1.0,5.0,94,0.00,,---,0.00,VWS V14.01,2013-08-17 09:40:00,
2013-08-17 04:45:00,75.6,73.8,29.96,NW,325,1.0,5.0,94,0.00,,---,0.00,VWS V14.01,2013-08-17 09:45:00,
2013-08-17 04:50:00,75.6,73.8,29.96,NW,321,0.0,5.0,94,0.00,,---,0.00,VWS V14.01,2013-08-17 09:50:00,
2013-08-17 04:55:00,75.6,73.8,29.96,NW,311,4.0,5.0,94,0.00,,---,0.00,VWS V14.01,2013-08-17 09:55:00,
2013-08-17 05:00:00,75.5,73.7,29.96,NW,313,2.0,5.0,94,0.00,,---,0.00,VWS V14.01,2013-08-17 10:00:00,
2013-08-17 05:05:00,75.4,73.6,29.96,North,8,0.0,4.0,94,0.00,,---,0.00,VWS V14.01,2013-08-17 10:05:00,
2013-08-17 05:10:00,75.5,74.0,29.96,NNW,329,1.0,7.0,95,0.00,,---,0.00,VWS V14.01,2013-08-17 10:10:00,
2013-08-17 05:15:00,75.5,74.0,29.96,NE,53,4.0,7.0,95,0.00,,---,0.00,VWS V14.01,2013-08-17 10:15:00,
2013-08-17 05:20:00,75.3,73.5,29.96,NW,316,2.0,7.0,94,0.00,,---,0.00,VWS V14.01,2013-08-17 10:20:00,
2013-08-17 05:25:00,75.2,73.4,29.97,ENE,58,2.0,7.0,94,0.00,,---,0.00,VWS V14.01,2013-08-17 10:25:00,
2013-08-17 05:30:00,75.1,73.3,29.97,NNW,338,3.0,7.0,94,0.00,,---,0.00,VWS V14.01,2013-08-17 10:30:00,
2013-08-17 05:35:00,75.0,73.5,29.96,NW,312,0.0,7.0,95,0.00,,---,0.00,VWS V14.01,2013-08-17 10:35:00,
2013-08-17 05:40:00,75.0,73.5,29.97,NNW,328,0.0,7.0,95,0.00,,---,0.00,VWS V14.01,2013-08-17 10:40:00,
2013-08-17 05:45:00,75.0,73.5,29.96,North,354,5.0,7.0,95,0.00,,---,0.00,VWS V14.01,2013-08-17 10:45:00,
2013-08-17 05:50:00,74.9,73.1,29.97,NNE,20,1.0,8.0,94,0.00,,---,0.00,VWS V14.01,2013-08-17 10:50:00,
2013-08-17 05:55:00,74.8,73.0,29.97,North,8,3.0,9.0,94,0.00,,---,0.00,VWS V14.01,2013-08-17 10:55:00,
2013-08-17 06:00:00,74.7,72.9,29.97,NNW,342,7.0,9.0,94,0.00,,---,0.00,VWS V14.01,2013-08-17 11:00:00,
2013-08-17 06:05:00,74.6,72.8,29.97,NNW,335,1.0,7.0,94,0.00,,---,0.00,VWS V14.01,2013-08-17 11:05:00,
2013-08-17 06:10:00,74.6,72.8,29.97,North,356,1.0,7.0,94,0.00,,---,0.00,VWS V14.01,2013-08-17 11:10:00,
2013-08-17 06:15:00,74.8,73.0,29.97,North,354,1.0,7.0,94,0.00,,---,0.00,VWS V14.01,2013-08-17 11:15:00,
2013-08-17 06:20:00,75.0,73.2,29.97,NNE,12,4.0,8.0,94,0.00,,---,0.00,VWS V14.01,2013-08-17 11:20:00,
2013-08-17 06:25:00,75.0,73.2,29.97,NE,49,2.0,9.0,94,0.00,,---,0.00,VWS V14.01,2013-08-17 11:25:00,
2013-08-17 06:30:00,74.9,72.7,29.97,NNE,12,3.0,9.0,93,0.00,,---,0.00,VWS V14.01,2013-08-17 11:30:00,
2013-08-17 06:35:00,74.9,72.7,29.97,NNE,22,4.0,9.0,93,0.00,,---,0.00,VWS V14.01,2013-08-17 11:35:00,
2013-08-17 06:40:00,74.9,72.7,29.97,NNE,21,1.0,10.0,93,0.00,,---,0.00,VWS V14.01,2013-08-17 11:40:00,
2013-08-17 06:45:00,75.0,72.8,29.97,ENE,60,3.0,10.0,93,0.00,,---,0.00,VWS V14.01,2013-08-17 11:45:00,
2013-08-17 06:50:00,75.1,72.9,29.98,NE,39,6.0,10.0,93,0.00,,---,0.00,VWS V14.01,2013-08-17 11:50:00,
2013-08-17 06:55:00,75.1,72.6,29.98,NW,326,4.0,11.0,92,0.00,,---,0.00,VWS V14.01,2013-08-17 11:55:00,
2013-08-17 07:00:00,75.1,72.6,29.98,NE,51,5.0,11.0,92,0.00,,---,0.00,VWS V14.01,2013-08-17 12:00:00,
2013-08-17 07:05:00,75.2,72.7,29.98,NNE,32,4.0,9.0,92,0.00,,---,0.00,VWS V14.01,2013-08-17 12:05:00,
2013-08-17 07:06:00,75.2,72.7,29.98,NNE,32,4.0,9.0,92,0.00,,---,0.00,VWS V14.01,2013-08-17 12:06:00,
2013-08-17 07:11:00,75.4,72.9,29.98,North,5,5.0,11.0,92,0.00,,---,0.00,VWS V14.01,2013-08-17 12:11:00,
2013-08-17 07:16:00,75.6,72.8,29.99,NNE,20,3.0,11.0,91,0.00,,---,0.00,VWS V14.01,2013-08-17 12:16:00,
2013-08-17 07:21:00,75.7,72.9,29.99,NNE,23,4.0,11.0,91,0.00,,---,0.00,VWS V14.01,2013-08-17 12:21:00,
2013-08-17 07:26:00,76.1,73.3,29.99,NE,45,8.0,11.0,91,0.00,,---,0.00,VWS V14.01,2013-08-17 12:26:00,
2013-08-17 07:31:00,76.4,73.2,29.99,North,354,5.0,11.0,90,0.00,,---,0.00,VWS V14.01,2013-08-17 12:31:00,
2013-08-17 07:36:00,76.6,73.1,29.99,NNE,17,7.0,13.0,89,0.00,,---,0.00,VWS V14.01,2013-08-17 12:36:00,
2013-08-17 07:41:00,76.9,73.4,29.99,ENE,57,5.0,13.0,89,0.00,,---,0.00,VWS V14.01,2013-08-17 12:41:00,
2013-08-17 07:46:00,77.1,73.6,29.99,NNE,32,5.0,13.0,89,0.00,,---,0.00,VWS V14.01,2013-08-17 12:46:00,
2013-08-17 07:51:00,77.4,73.9,29.99,NNE,26,8.0,13.0,89,0.00,,---,0.00,VWS V14.01,2013-08-17 12:51:00,
2013-08-17 07:56:00,77.7,74.2,30.00,NNW,344,7.0,13.0,89,0.00,,---,0.00,VWS V14.01,2013-08-17 12:56:00,
2013-08-17 08:01:00,77.7,74.2,30.00,NNE,25,7.0,9.0,89,0.00,,---,0.00,VWS V14.01,2013-08-17 13:01:00,
2013-08-17 08:06:00,77.9,74.1,30.00,NE,43,9.0,14.0,88,0.00,,---,0.00,VWS V14.01,2013-08-17 13:06:00,
2013-08-17 08:11:00,78.1,74.3,30.00,NE,47,6.0,16.0,88,0.00,,---,0.00,VWS V14.01,2013-08-17 13:11:00,
2013-08-17 08:16:00,78.3,74.5,30.00,NNE,33,8.0,16.0,88,0.00,,---,0.00,VWS V14.01,2013-08-17 13:16:00,
2013-08-17 08:21:00,78.5,74.7,30.00,NNE,20,10.0,16.0,88,0.00,,---,0.00,VWS V14.01,2013-08-17 13:21:00,
2013-08-17 08:26:00,78.8,74.9,30.00,NNE,13,4.0,16.0,88,0.00,,---,0.00,VWS V14.01,2013-08-17 13:26:00,
2013-08-17 08:31:00,78.8,74.9,30.00,NNE,30,8.0,16.0,88,0.00,,---,0.00,VWS V14.01,2013-08-17 13:31:00,
2013-08-17 08:36:00,79.0,75.2,30.00,NE,37,7.0,16.0,88,0.00,,---,0.00,VWS V14.01,2013-08-17 13:36:00,
2013-08-17 08:41:00,79.4,75.5,30.00,NNE,20,11.0,16.0,88,0.00,,---,0.00,VWS V14.01,2013-08-17 13:41:00,
2013-08-17 08:46:00,79.4,75.2,30.00,NE,38,9.0,16.0,87,0.00,,---,0.00,VWS V14.01,2013-08-17 13:46:00,
2013-08-17 08:51:00,79.6,75.7,30.01,NNE,25,4.0,16.0,88,0.00,,---,0.00,VWS V14.01,2013-08-17 13:51:00,
2013-08-17 08:56:00,79.7,75.5,30.01,NNE,30,9.0,16.0,87,0.00,,---,0.00,VWS V14.01,2013-08-17 13:56:00,
2013-08-17 09:01:00,79.8,75.2,30.01,NNE,25,6.0,16.0,86,0.00,,---,0.00,VWS V14.01,2013-08-17 14:01:00,
2013-08-17 09:06:00,79.9,75.3,30.01,NE,39,8.0,13.0,86,0.00,,---,0.00,VWS V14.01,2013-08-17 14:06:00,
2013-08-17 09:11:00,79.9,75.0,30.01,ENE,61,9.0,14.0,85,0.00,,---,0.00,VWS V14.01,2013-08-17 14:11:00,
2013-08-17 09:16:00,80.2,75.6,30.01,NNE,32,4.0,14.0,86,0.00,,---,0.00,VWS V14.01,2013-08-17 14:16:00,
2013-08-17 09:21:00,80.5,75.6,30.01,NNE,21,5.0,14.0,85,0.00,,---,0.00,VWS V14.01,2013-08-17 14:21:00,
2013-08-17 09:26:00,80.5,75.2,30.01,NNE,18,9.0,14.0,84,0.00,,---,0.00,VWS V14.01,2013-08-17 14:26:00,
2013-08-17 09:31:00,80.7,75.8,30.01,NNE,21,6.0,14.0,85,0.00,,---,0.00,VWS V14.01,2013-08-17 14:31:00,
2013-08-17 09:36:00,80.9,75.6,30.01,NE,39,10.0,14.0,84,0.00,,---,0.00,VWS V14.01,2013-08-17 14:36:00,
2013-08-17 09:41:00,81.0,75.7,30.01,NNW,333,4.0,14.0,84,0.00,,---,0.00,VWS V14.01,2013-08-17 14:41:00,
2013-08-17 09:46:00,80.9,75.3,30.01,NNE,25,9.0,14.0,83,0.00,,---,0.00,VWS V14.01,2013-08-17 14:46:00,
2013-08-17 09:51:00,81.1,75.8,30.01,NNE,25,9.0,14.0,84,0.00,,---,0.00,VWS V14.01,2013-08-17 14:51:00,
2013-08-17 09:56:00,81.2,75.6,30.01,NW,312,9.0,14.0,83,0.00,,---,0.00,VWS V14.01,2013-08-17 14:56:00,
2013-08-17 10:01:00,81.1,75.4,30.01,NNE,25,8.0,16.0,83,0.00,,---,0.00,VWS V14.01,2013-08-17 15:01:00,
2013-08-17 10:06:00,81.3,75.3,30.01,NE,43,11.0,13.0,82,0.00,,---,0.00,VWS V14.01,2013-08-17 15:06:00,
2013-08-17 10:11:00,81.3,75.3,30.01,NNE,30,13.0,14.0,82,0.00,,---,0.00,VWS V14.01,2013-08-17 15:11:00,
2013-08-17 10:16:00,81.3,75.7,30.01,NE,39,10.0,14.0,83,0.00,,---,0.00,VWS V14.01,2013-08-17 15:16:00,
2013-08-17 10:21:00,82.1,76.4,30.01,NE,43,4.0,14.0,83,0.00,,---,0.00,VWS V14.01,2013-08-17 15:21:00,
2013-08-17 10:26:00,81.9,75.1,30.01,NNE,23,13.0,14.0,80,0.00,,---,0.00,VWS V14.01,2013-08-17 15:26:00,
2013-08-17 10:31:00,81.9,75.5,30.01,NE,47,8.0,14.0,81,0.00,,---,0.00,VWS V14.01,2013-08-17 15:31:00,
2013-08-17 10:36:00,81.7,75.3,30.02,NNE,33,8.0,14.0,81,0.00,,---,0.00,VWS V14.01,2013-08-17 15:36:00,
2013-08-17 10:41:00,82.0,76.0,30.02,NNE,12,5.0,14.0,82,0.00,,---,0.00,VWS V14.01,2013-08-17 15:41:00,
2013-08-17 10:46:00,82.1,76.1,30.02,NE,43,10.0,14.0,82,0.00,,---,0.00,VWS V14.01,2013-08-17 15:46:00,
2013-08-17 10:51:00,82.1,75.3,30.01,NNE,19,12.0,14.0,80,0.00,,---,0.00,VWS V14.01,2013-08-17 15:51:00,
2013-08-17 10:56:00,82.1,75.7,30.01,NE,36,8.0,14.0,81,0.00,,---,0.00,VWS V14.01,2013-08-17 15:56:00,
2013-08-17 11:01:00,82.3,75.1,30.02,NNW,347,7.0,9.0,79,0.00,,---,0.00,VWS V14.01,2013-08-17 16:01:00,
2013-08-17 11:06:00,82.3,75.1,30.01,North,9,6.0,13.0,79,0.00,,---,0.00,VWS V14.01,2013-08-17 16:06:00,
2013-08-17 11:11:00,82.3,75.1,30.02,NE,40,13.0,14.0,79,0.00,,---,0.00,VWS V14.01,2013-08-17 16:11:00,
2013-08-17 11:16:00,82.3,75.5,30.01,NE,42,7.0,14.0,80,0.00,,---,0.00,VWS V14.01,2013-08-17 16:16:00,
2013-08-17 11:21:00,82.6,75.4,30.01,ENE,60,5.0,14.0,79,0.00,,---,0.00,VWS V14.01,2013-08-17 16:21:00,
2013-08-17 11:26:00,82.7,75.5,30.01,NNE,25,6.0,14.0,79,0.00,,---,0.00,VWS V14.01,2013-08-17 16:26:00,
2013-08-17 11:31:00,82.9,75.7,30.01,NE,39,9.0,14.0,79,0.00,,---,0.00,VWS V14.01,2013-08-17 16:31:00,
2013-08-17 11:36:00,82.8,75.2,30.01,NNE,30,9.0,14.0,78,0.00,,---,0.00,VWS V14.01,2013-08-17 16:36:00,
2013-08-17 11:41:00,82.8,75.6,30.01,NE,38,9.0,14.0,79,0.00,,---,0.00,VWS V14.01,2013-08-17 16:41:00,
2013-08-17 11:46:00,83.1,75.5,30.01,NE,53,9.0,14.0,78,0.00,,---,0.00,VWS V14.01,2013-08-17 16:46:00,
2013-08-17 11:51:00,83.4,75.4,30.01,ENE,63,9.0,14.0,77,0.00,,---,0.00,VWS V14.01,2013-08-17 16:51:00,
2013-08-17 11:56:00,83.2,74.8,30.01,NNE,15,6.0,14.0,76,0.00,,---,0.00,VWS V14.01,2013-08-17 16:56:00,
2013-08-17 12:01:00,83.2,74.5,30.01,ENE,70,8.0,14.0,75,0.00,,---,0.00,VWS V14.01,2013-08-17 17:01:00,
2013-08-17 12:06:00,83.3,74.6,30.01,NNE,33,8.0,13.0,75,0.00,,---,0.00,VWS V14.01,2013-08-17 17:06:00,
2013-08-17 12:11:00,83.7,74.9,30.01,NNE,30,7.0,13.0,75,0.00,,---,0.00,VWS V14.01,2013-08-17 17:11:00,
2013-08-17 12:16:00,83.7,74.5,30.01,NNE,19,10.0,14.0,74,0.00,,---,0.00,VWS V14.01,2013-08-17 17:16:00,
2013-08-17 12:21:00,83.8,75.0,30.00,ENE,58,3.0,14.0,75,0.00,,---,0.00,VWS V14.01,2013-08-17 17:21:00,
2013-08-17 12:26:00,84.6,74.6,30.00,ENE,65,7.0,14.0,72,0.00,,---,0.00,VWS V14.01,2013-08-17 17:26:00,
2013-08-17 12:31:00,84.5,74.1,30.00,NNE,19,9.0,14.0,71,0.00,,---,0.00,VWS V14.01,2013-08-17 17:31:00,
2013-08-17 12:36:00,84.8,73.5,30.00,ENE,61,8.0,14.0,69,0.00,,---,0.00,VWS V14.01,2013-08-17 17:36:00,
2013-08-17 12:41:00,84.9,73.6,30.00,NE,47,7.0,14.0,69,0.00,,---,0.00,VWS V14.01,2013-08-17 17:41:00,
2013-08-17 12:46:00,85.7,74.8,30.00,NE,55,8.0,14.0,70,0.00,,---,0.00,VWS V14.01,2013-08-17 17:46:00,
2013-08-17 12:50:00,86.1,74.8,29.99,ENE,63,9.0,14.0,69,0.00,,---,0.00,VWS V14.01,2013-08-17 17:50:00,
2013-08-17 12:56:00,85.8,74.0,29.99,ENE,59,9.0,14.0,68,0.00,,---,0.00,VWS V14.01,2013-08-17 17:56:00,
2013-08-17 13:01:00,86.1,74.8,29.99,NE,49,6.0,14.0,69,0.00,,---,0.00,VWS V14.01,2013-08-17 18:01:00,
2013-08-17 13:06:00,86.5,74.2,29.99,NNE,26,5.0,10.0,67,0.00,,---,0.00,VWS V14.01,2013-08-17 18:06:00,
2013-08-17 13:11:00,86.5,74.2,29.99,NNE,29,7.0,12.0,67,0.00,,---,0.00,VWS V14.01,2013-08-17 18:11:00,
2013-08-17 13:16:00,86.1,73.4,29.99,NE,37,9.0,12.0,66,0.00,,---,0.00,VWS V14.01,2013-08-17 18:16:00,
2013-08-17 13:21:00,86.0,74.2,29.99,NE,41,6.0,12.0,68,0.00,,---,0.00,VWS V14.01,2013-08-17 18:21:00,
2013-08-17 13:26:00,86.3,73.6,29.98,NE,43,2.0,12.0,66,0.00,,---,0.00,VWS V14.01,2013-08-17 18:26:00,
2013-08-17 13:31:00,86.6,74.8,29.98,NE,38,4.0,12.0,68,0.00,,---,0.00,VWS V14.01,2013-08-17 18:31:00,
2013-08-17 13:36:00,86.4,73.7,29.98,North,352,3.0,12.0,66,0.00,,---,0.00,VWS V14.01,2013-08-17 18:36:00,
2013-08-17 13:40:00,86.9,72.8,29.98,NNW,340,3.0,12.0,63,0.00,,---,0.00,VWS V14.01,2013-08-17 18:40:00,
2013-08-17 13:45:00,86.9,72.8,29.98,East,85,1.0,12.0,63,0.00,,---,0.00,VWS V14.01,2013-08-17 18:45:00,
2013-08-17 13:50:00,87.0,74.7,29.97,NE,42,7.0,12.0,67,0.00,,---,0.00,VWS V14.01,2013-08-17 18:50:00,
2013-08-17 13:55:00,87.5,72.9,29.97,NE,44,1.0,12.0,62,0.00,,---,0.00,VWS V14.01,2013-08-17 18:55:00,
2013-08-17 14:00:00,87.4,74.2,29.97,East,81,5.0,12.0,65,0.00,,---,0.00,VWS V14.01,2013-08-17 19:00:00,
2013-08-17 14:05:00,87.3,74.1,29.97,ESE,117,9.0,11.0,65,0.00,,---,0.00,VWS V14.01,2013-08-17 19:05:00,
2013-08-17 14:10:00,87.2,74.0,29.97,NE,53,4.0,11.0,65,0.00,,---,0.00,VWS V14.01,2013-08-17 19:10:00,
2013-08-17 14:15:00,87.0,73.8,29.97,ESE,118,6.0,11.0,65,0.00,,---,0.00,VWS V14.01,2013-08-17 19:15:00,
2013-08-17 14:20:00,87.1,74.4,29.97,East,81,8.0,11.0,66,0.00,,---,0.00,VWS V14.01,2013-08-17 19:20:00,
2013-08-17 14:25:00,87.5,71.9,29.97,East,88,5.0,11.0,60,0.00,,---,0.00,VWS V14.01,2013-08-17 19:25:00,
2013-08-17 14:30:00,87.6,73.9,29.97,ENE,68,6.0,11.0,64,0.00,,---,0.00,VWS V14.01,2013-08-17 19:30:00,
2013-08-17 14:35:00,87.8,73.2,29.97,ENE,70,2.0,11.0,62,0.00,,---,0.00,VWS V14.01,2013-08-17 19:35:00,
2013-08-17 14:40:00,87.8,73.6,29.96,East,86,6.0,11.0,63,0.00,,---,0.00,VWS V14.01,2013-08-17 19:40:00,
2013-08-17 14:45:00,87.8,72.7,29.96,East,98,5.0,11.0,61,0.00,,---,0.00,VWS V14.01,2013-08-17 19:45:00,
2013-08-17 14:50:00,87.5,73.8,29.96,ENE,78,5.0,11.0,64,0.00,,---,0.00,VWS V14.01,2013-08-17 19:50:00,
2013-08-17 14:55:00,87.5,74.8,29.96,ENE,72,6.0,11.0,66,0.00,,---,0.00,VWS V14.01,2013-08-17 19:55:00,
2013-08-17 15:01:00,87.7,74.5,29.95,East,79,3.0,11.0,65,0.00,,---,0.00,VWS V14.01,2013-08-17 20:01:00,
2013-08-17 15:06:00,87.8,76.4,29.95,ESE,102,5.0,9.0,69,0.00,,---,0.00,VWS V14.01,2013-08-17 20:06:00,
2013-08-17 15:11:00,87.2,75.8,29.95,SE,132,4.0,9.0,69,0.00,,---,0.00,VWS V14.01,2013-08-17 20:11:00,
2013-08-17 15:16:00,87.3,76.8,29.95,East,98,10.0,10.0,71,0.00,,---,0.00,VWS V14.01,2013-08-17 20:16:00,
2013-08-17 15:21:00,87.0,76.9,29.94,ENE,75,7.0,11.0,72,0.00,,---,0.00,VWS V14.01,2013-08-17 20:21:00,
2013-08-17 15:25:00,87.0,76.9,29.94,SE,141,6.0,12.0,72,0.00,,---,0.00,VWS V14.01,2013-08-17 20:25:00,
2013-08-17 15:30:00,86.8,76.7,29.94,ENE,71,5.0,12.0,72,0.00,,---,0.00,VWS V14.01,2013-08-17 20:30:00,
2013-08-17 15:35:00,86.6,76.5,29.94,East,96,3.0,12.0,72,0.00,,---,0.00,VWS V14.01,2013-08-17 20:35:00,
2013-08-17 15:40:00,86.4,76.3,29.94,SE,126,4.0,12.0,72,0.00,,---,0.00,VWS V14.01,2013-08-17 20:40:00,
2013-08-17 15:45:00,86.7,77.0,29.94,SE,125,6.0,12.0,73,0.00,,---,0.00,VWS V14.01,2013-08-17 20:45:00,
2013-08-17 15:50:00,86.6,76.9,29.94,SE,129,5.0,12.0,73,0.00,,---,0.00,VWS V14.01,2013-08-17 20:50:00,
2013-08-17 15:55:00,86.6,77.3,29.93,SSE,147,4.0,12.0,74,0.00,,---,0.00,VWS V14.01,2013-08-17 20:55:00,
2013-08-17 16:00:00,86.7,77.0,29.93,ESE,120,5.0,12.0,73,0.00,,---,0.00,VWS V14.01,2013-08-17 21:00:00,
2013-08-17 16:05:00,86.6,76.5,29.93,East,89,7.0,9.0,72,0.00,,---,0.00,VWS V14.01,2013-08-17 21:05:00,
2013-08-17 16:10:00,86.2,76.5,29.93,ESE,118,3.0,11.0,73,0.00,,---,0.00,VWS V14.01,2013-08-17 21:10:00,
2013-08-17 16:15:00,86.2,76.5,29.93,SE,124,7.0,13.0,73,0.00,,---,0.00,VWS V14.01,2013-08-17 21:15:00,
2013-08-17 16:20:00,86.2,76.9,29.93,ESE,106,5.0,13.0,74,0.00,,---,0.00,VWS V14.01,2013-08-17 21:20:00,
2013-08-17 16:25:00,86.1,76.0,29.93,East,83,4.0,13.0,72,0.00,,---,0.00,VWS V14.01,2013-08-17 21:25:00,
2013-08-17 16:30:00,85.8,76.6,29.93,SE,130,8.0,13.0,74,0.00,,---,0.00,VWS V14.01,2013-08-17 21:30:00,
2013-08-17 16:35:00,85.7,75.6,29.93,SE,125,6.0,13.0,72,0.00,,---,0.00,VWS V14.01,2013-08-17 21:35:00,
2013-08-17 16:40:00,85.7,76.1,29.93,ESE,116,11.0,13.0,73,0.00,,---,0.00,VWS V14.01,2013-08-17 21:40:00,
2013-08-17 16:45:00,85.8,76.2,29.93,East,98,9.0,13.0,73,0.00,,---,0.00,VWS V14.01,2013-08-17 21:45:00,
2013-08-17 16:50:00,85.6,75.5,29.93,ESE,122,8.0,13.0,72,0.00,,---,0.00,VWS V14.01,2013-08-17 21:50:00,
2013-08-17 16:55:00,85.6,76.0,29.93,ESE,103,5.0,13.0,73,0.00,,---,0.00,VWS V14.01,2013-08-17 21:55:00,
2013-08-17 17:00:00,85.8,75.7,29.92,ESE,105,4.0,13.0,72,0.00,,---,0.00,VWS V14.01,2013-08-17 22:00:00,
2013-08-17 17:05:00,86.0,75.9,29.92,SE,127,6.0,9.0,72,0.00,,---,0.00,VWS V14.01,2013-08-17 22:05:00,
2013-08-17 17:10:00,85.9,76.2,29.93,East,85,6.0,10.0,73,0.00,,---,0.00,VWS V14.01,2013-08-17 22:10:00,
2013-08-17 17:15:00,85.7,75.6,29.93,ESE,120,4.0,13.0,72,0.00,,---,0.00,VWS V14.01,2013-08-17 22:15:00,
2013-08-17 17:20:00,85.6,75.5,29.93,ESE,113,8.0,13.0,72,0.00,,---,0.00,VWS V14.01,2013-08-17 22:20:00,
2013-08-17 17:25:00,85.4,75.3,29.93,ESE,102,7.0,13.0,72,0.00,,---,0.00,VWS V14.01,2013-08-17 22:25:00,
2013-08-17 17:30:00,85.5,75.9,29.92,ESE,111,9.0,13.0,73,0.00,,---,0.00,VWS V14.01,2013-08-17 22:30:00,
2013-08-17 17:35:00,85.6,76.0,29.93,SE,124,8.0,13.0,73,0.00,,---,0.00,VWS V14.01,2013-08-17 22:35:00,
2013-08-17 17:40:00,85.6,76.0,29.93,ESE,114,5.0,13.0,73,0.00,,---,0.00,VWS V14.01,2013-08-17 22:40:00,
2013-08-17 17:45:00,85.6,75.5,29.93,SE,127,8.0,13.0,72,0.00,,---,0.00,VWS V14.01,2013-08-17 22:45:00,
2013-08-17 17:50:00,85.3,75.2,29.93,ESE,113,7.0,13.0,72,0.00,,---,0.00,VWS V14.01,2013-08-17 22:50:00,
2013-08-17 17:55:00,85.5,75.4,29.93,ESE,104,9.0,13.0,72,0.00,,---,0.00,VWS V14.01,2013-08-17 22:55:00,
2013-08-17 18:00:00,85.5,75.9,29.93,SE,127,3.0,13.0,73,0.00,,---,0.00,VWS V14.01,2013-08-17 23:00:00,
2013-08-17 18:05:00,85.3,75.2,29.93,ESE,120,5.0,14.0,72,0.00,,---,0.00,VWS V14.01,2013-08-17 23:05:00,
2013-08-17 18:10:00,85.2,75.6,29.93,SE,143,4.0,14.0,73,0.00,,---,0.00,VWS V14.01,2013-08-17 23:10:00,
2013-08-17 18:15:00,85.2,75.2,29.93,ESE,122,10.0,14.0,72,0.00,,---,0.00,VWS V14.01,2013-08-17 23:15:00,
2013-08-17 18:20:00,85.0,75.0,29.93,SE,142,5.0,14.0,72,0.00,,---,0.00,VWS V14.01,2013-08-17 23:20:00,
2013-08-17 18:25:00,85.2,76.0,29.93,ESE,108,6.0,14.0,74,0.00,,---,0.00,VWS V14.01,2013-08-17 23:25:00,
2013-08-17 18:30:00,85.3,75.7,29.93,ENE,77,10.0,14.0,73,0.00,,---,0.00,VWS V14.01,2013-08-17 23:30:00,
2013-08-17 18:35:00,84.9,75.3,29.93,ESE,119,10.0,14.0,73,0.00,,---,0.00,VWS V14.01,2013-08-17 23:35:00,
2013-08-17 18:40:00,84.8,75.2,29.93,ESE,107,9.0,14.0,73,0.00,,---,0.00,VWS V14.01,2013-08-17 23:40:00,
2013-08-17 18:45:00,84.8,75.6,29.93,ESE,118,12.0,14.0,74,0.00,,---,0.00,VWS V14.01,2013-08-17 23:45:00,
2013-08-17 18:50:00,84.6,75.0,29.93,ESE,120,5.0,14.0,73,0.00,,---,0.00,VWS V14.01,2013-08-17 23:50:00,
2013-08-17 18:55:00,84.7,75.1,29.93,SE,132,10.0,14.0,73,0.00,,---,0.00,VWS V14.01,2013-08-17 23:55:00,
2013-08-17 19:00:00,84.5,75.3,29.93,SE,124,9.0,14.0,74,0.00,,---,0.00,VWS V14.01,2013-08-18 00:00:00,
2013-08-17 19:05:00,84.5,75.3,29.93,SE,133,8.0,12.0,74,0.00,,---,0.00,VWS V14.01,2013-08-18 00:05:00,
2013-08-17 19:10:00,84.4,75.2,29.93,ESE,117,9.0,13.0,74,0.00,,---,0.00,VWS V14.01,2013-08-18 00:10:00,
2013-08-17 19:15:00,84.3,75.1,29.93,ESE,117,7.0,13.0,74,0.00,,---,0.00,VWS V14.01,2013-08-18 00:15:00,
2013-08-17 19:20:00,84.2,75.0,29.93,East,86,8.0,13.0,74,0.00,,---,0.00,VWS V14.01,2013-08-18 00:20:00,
2013-08-17 19:25:00,84.0,74.8,29.93,SE,127,8.0,13.0,74,0.00,,---,0.00,VWS V14.01,2013-08-18 00:25:00,
2013-08-17 19:30:00,84.1,74.9,29.93,SE,138,5.0,13.0,74,0.00,,---,0.00,VWS V14.01,2013-08-18 00:30:00,
2013-08-17 19:35:00,83.9,74.7,29.93,SSE,156,6.0,13.0,74,0.00,,---,0.00,VWS V14.01,2013-08-18 00:35:00,
2013-08-17 19:40:00,83.8,74.2,29.94,ESE,103,6.0,13.0,73,0.00,,---,0.00,VWS V14.01,2013-08-18 00:40:00,
2013-08-17 19:45:00,83.7,74.9,29.94,East,89,6.0,13.0,75,0.00,,---,0.00,VWS V14.01,2013-08-18 00:45:00,
2013-08-17 19:50:00,83.5,74.8,29.94,SE,138,6.0,13.0,75,0.00,,---,0.00,VWS V14.01,2013-08-18 00:50:00,
2013-08-17 19:55:00,83.4,74.7,29.94,SE,145,7.0,13.0,75,0.00,,---,0.00,VWS V14.01,2013-08-18 00:55:00,
2013-08-17 20:00:00,83.3,74.9,29.94,ESE,118,10.0,13.0,76,0.00,,---,0.00,VWS V14.01,2013-08-18 01:00:00,
2013-08-17 20:05:00,83.2,74.5,29.94,ESE,115,5.0,12.0,75,0.00,,---,0.00,VWS V14.01,2013-08-18 01:05:00,
2013-08-17 20:10:00,83.2,74.5,29.94,ESE,118,7.0,12.0,75,0.00,,---,0.00,VWS V14.01,2013-08-18 01:10:00,
2013-08-17 20:15:00,83.1,74.4,29.94,SE,143,3.0,12.0,75,0.00,,---,0.00,VWS V14.01,2013-08-18 01:15:00,
2013-08-17 20:20:00,83.0,74.3,29.94,SSE,163,2.0,12.0,75,0.00,,---,0.00,VWS V14.01,2013-08-18 01:20:00,
2013-08-17 20:25:00,83.0,74.7,29.94,SE,133,4.0,12.0,76,0.00,,---,0.00,VWS V14.01,2013-08-18 01:25:00,
2013-08-17 20:30:00,82.9,74.6,29.94,ESE,111,5.0,12.0,76,0.00,,---,0.00,VWS V14.01,2013-08-18 01:30:00,
2013-08-17 20:35:00,82.9,74.6,29.94,East,97,3.0,12.0,76,0.00,,---,0.00,VWS V14.01,2013-08-18 01:35:00,
2013-08-17 20:40:00,82.8,74.9,29.94,East,94,4.0,12.0,77,0.00,,---,0.00,VWS V14.01,2013-08-18 01:40:00,
2013-08-17 20:45:00,82.8,74.9,29.95,ESE,120,1.0,12.0,77,0.00,,---,0.00,VWS V14.01,2013-08-18 01:45:00,
2013-08-17 20:50:00,82.8,74.5,29.95,East,85,6.0,12.0,76,0.00,,---,0.00,VWS V14.01,2013-08-18 01:50:00,
2013-08-17 20:55:00,82.8,74.1,29.94,SE,134,3.0,12.0,75,0.00,,---,0.00,VWS V14.01,2013-08-18 01:55:00,
2013-08-17 21:00:00,82.8,74.1,29.95,SE,139,6.0,12.0,75,0.00,,---,0.00,VWS V14.01,2013-08-18 02:00:00,
2013-08-17 21:05:00,82.8,73.7,29.95,ESE,103,6.0,7.0,74,0.00,,---,0.00,VWS V14.01,2013-08-18 02:05:00,
2013-08-17 21:10:00,82.8,73.7,29.95,East,101,4.0,9.0,74,0.00,,---,0.00,VWS V14.01,2013-08-18 02:10:00,
2013-08-17 21:15:00,83.0,73.5,29.95,ESE,108,5.0,10.0,73,0.00,,---,0.00,VWS V14.01,2013-08-18 02:15:00,
2013-08-17 21:20:00,83.0,73.5,29.95,ESE,115,9.0,10.0,73,0.00,,---,0.00,VWS V14.01,2013-08-18 02:20:00,
2013-08-17 21:25:00,83.0,73.5,29.95,East,93,3.0,10.0,73,0.00,,---,0.00,VWS V14.01,2013-08-18 02:25:00,
2013-08-17 21:30:00,83.1,74.0,29.96,SE,141,4.0,10.0,74,0.00,,---,0.00,VWS V14.01,2013-08-18 02:30:00,
2013-08-17 21:35:00,83.1,73.6,29.96,SE,134,6.0,10.0,73,0.00,,---,0.00,VWS V14.01,2013-08-18 02:35:00,
2013-08-17 21:40:00,83.2,74.1,29.96,SE,124,9.0,10.0,74,0.00,,---,0.00,VWS V14.01,2013-08-18 02:40:00,
2013-08-17 21:45:00,83.1,74.0,29.96,SE,141,2.0,10.0,74,0.00,,---,0.00,VWS V14.01,2013-08-18 02:45:00,
2013-08-17 21:50:00,83.0,73.9,29.96,ESE,113,3.0,10.0,74,0.00,,---,0.00,VWS V14.01,2013-08-18 02:50:00,
2013-08-17 21:55:00,82.9,74.2,29.96,ESE,107,2.0,10.0,75,0.00,,---,0.00,VWS V14.01,2013-08-18 02:55:00,
2013-08-17 22:00:00,82.9,73.8,29.96,ESE,115,9.0,11.0,74,0.00,,---,0.00,VWS V14.01,2013-08-18 03:00:00,
2013-08-17 22:05:00,83.0,73.9,29.97,ESE,110,0.0,9.0,74,0.00,,---,0.00,VWS V14.01,2013-08-18 03:05:00,
2013-08-17 22:10:00,82.9,74.2,29.97,SE,131,3.0,9.0,75,0.00,,---,0.00,VWS V14.01,2013-08-18 03:10:00,
2013-08-17 22:15:00,82.8,73.7,29.97,SE,124,1.0,9.0,74,0.00,,---,0.00,VWS V14.01,2013-08-18 03:15:00,
2013-08-17 22:20:00,82.8,73.7,29.97,ESE,122,5.0,11.0,74,0.00,,---,0.00,VWS V14.01,2013-08-18 03:20:00,
2013-08-17 22:25:00,82.7,73.6,29.97,East,93,7.0,11.0,74,0.00,,---,0.00,VWS V14.01,2013-08-18 03:25:00,
2013-08-17 22:30:00,82.7,74.0,29.97,East,95,1.0,11.0,75,0.00,,---,0.00,VWS V14.01,2013-08-18 03:30:00,
2013-08-17 22:35:00,82.7,73.6,29.97,SE,124,3.0,11.0,74,0.00,,---,0.00,VWS V14.01,2013-08-18 03:35:00,
2013-08-17 22:40:00,82.7,74.0,29.97,SE,135,3.0,11.0,75,0.00,,---,0.00,VWS V14.01,2013-08-18 03:40:00,
2013-08-17 22:45:00,82.6,73.9,29.97,SE,141,4.0,11.0,75,0.00,,---,0.00,VWS V14.01,2013-08-18 03:45:00,
2013-08-17 22:50:00,82.6,73.9,29.97,ENE,72,7.0,11.0,75,0.00,,---,0.00,VWS V14.01,2013-08-18 03:50:00,
2013-08-17 22:55:00,82.5,73.8,29.97,SE,134,0.0,11.0,75,0.00,,---,0.00,VWS V14.01,2013-08-18 03:55:00,
2013-08-17 23:00:00,82.4,74.1,29.97,ESE,110,1.0,11.0,76,0.00,,---,0.00,VWS V14.01,2013-08-18 04:00:00,
2013-08-17 23:01:00,82.4,74.1,29.97,ESE,120,4.0,11.0,76,0.00,,---,0.00,VWS V14.01,2013-08-18 04:01:00,
2013-08-17 23:06:00,82.5,73.8,29.97,SSE,153,4.0,8.0,75,0.00,,---,0.00,VWS V14.01,2013-08-18 04:06:00,
2013-08-17 23:11:00,82.5,73.8,29.97,East,96,4.0,8.0,75,0.00,,---,0.00,VWS V14.01,2013-08-18 04:11:00,
2013-08-17 23:16:00,82.5,74.2,29.97,South,183,1.0,8.0,76,0.00,,---,0.00,VWS V14.01,2013-08-18 04:16:00,
2013-08-17 23:21:00,82.4,74.1,29.97,SSE,148,2.0,8.0,76,0.00,,---,0.00,VWS V14.01,2013-08-18 04:21:00,
2013-08-17 23:26:00,82.5,74.2,29.97,SSW,201,5.0,8.0,76,0.00,,---,0.00,VWS V14.01,2013-08-18 04:26:00,
2013-08-17 23:31:00,82.4,74.1,29.97,SE,141,2.0,8.0,76,0.00,,---,0.00,VWS V14.01,2013-08-18 04:31:00,
2013-08-17 23:36:00,82.4,74.1,29.98,SE,142,2.0,8.0,76,0.00,,---,0.00,VWS V14.01,2013-08-18 04:36:00,
2013-08-17 23:41:00,82.3,74.0,29.98,South,169,2.0,8.0,76,0.00,,---,0.00,VWS V14.01,2013-08-18 04:41:00,
2013-08-17 23:46:00,82.3,74.0,29.98,East,97,2.0,9.0,76,0.00,,---,0.00,VWS V14.01,2013-08-18 04:46:00,
2013-08-17 23:51:00,82.2,73.5,29.98,SE,139,4.0,9.0,75,0.00,,---,0.00,VWS V14.01,2013-08-18 04:51:00,
2013-08-17 23:56:00,82.3,73.6,29.98,SE,146,2.0,9.0,75,0.00,,---,0.00,VWS V14.01,2013-08-18 04:56:00,